sat.trackr.live / text

‹ back to catalog

STARLINK-2280

NORAD 47861 · 2021-021B

PAYLOAD ACTIVE UNKNOWN

§ Identity

Operator
Country
US
Launch date
2021-03-14
Launch site
AFETR
Launch vehicle
Mass (kg)
RCS (m²)

Purposes: comms

External: N2YO · Heavens-Above · Gunter

§ Orbital elements

Epoch: 2026-05-25T01:23:19.229280Z

Period
94.01 min
Inclination
53.1605°
Eccentricity
0.0000677
Mean motion
15.31712470 rev/d
Perigee alt
470.2 km
Apogee alt
471.2 km
Semi-major
6,848.8 km
B*
1.9453e-4
RAAN
263.1273°
Arg perigee
72.7502°
Mean anomaly
287.3574°
Rev number
28,809

§ Raw data

STARLINK-22801 47861U 21021B   26145.05786145  .00005679  00000+0  19453-3 0  99972 47861  53.1605 263.1273 0000677  72.7502 287.3574 15.31712470288099

JSON: /api/v1/satellites/47861 · /tle

For live sub-satellite position, see the globe view (requires WebGL).

§ Visibility from observer

Set your observer location to see the next 7 days of passes ≥ 10°. The values pass through the URL so the page stays shareable.

No JS? Fill the form by hand. The geolocation button needs JavaScript.